Home   Weather   Reinach   Past weeks

Flag for Switzerland Past Weather in Reinach, Basel-Land, Switzerland — Yesterday and Last 2 Weeks

Now
62 °F

Light rain. Overcast.


Feels Like: 62 °F
Forecast: 46 / 60 °F
Wind: 2 mph from South

Location: Bale-Mulhouse

Current Time: Oct 1, 2016 at 2:12:49 PM

Latest Report: Oct 1, 2016 at 1:00 PM


Visibility: 16 mi

Pressure: 29.92 "Hg

Humidity: 80%

Dew Point: 56 °F

Location of ReinachLocation

Past Weather in Reinach — Graph

°F

Reinach Temperature Yesterday

Maximum temperature yesterday: 73 °F (at 2:00 PM)
Minimum temperature yesterday: 48 °F (at 7:00 AM)
Average temperature yesterday: 60 °F

High & Low Weather Summary for the Past Weeks

 TemperatureHumidityPressure
High79 °F (Sep 29, 4:00 PM)98% (Sep 17, 8:00 AM)30.45 "Hg (Sep 17, 8:00 AM)
Low42 °F (Sep 24, 7:00 AM)39% (Sep 25, 4:00 PM)29.89 "Hg (Oct 1, 10:00 AM)
Average59 °F81%30.14 "Hg
* Reported Sep 16 12:00 PM — Oct 1 12:00 PM, Reinach, Weather by CustomWeather, © 2016

Note: Actual official high and low records may vary slightly from our data, if they occured in-between our weather recording intervals... More about our weather records

Advertising

Reinach Weather History for the Previous 24 Hours

Scroll right to see more
 ConditionsComfort  
Time TempWeatherWind HumidityBarometerVisibility
12:00 PM
Sat, Oct 1
63 °FOvercast.2 mph73%29.90 "Hg16 mi
11:00 AM62 °FOvercast.3 mph75%29.90 "Hg12 mi
10:00 AM59 °FOvercast.5 mph82%29.89 "Hg12 mi
9:00 AM58 °FOvercast.3 mph87%29.90 "Hg9 mi
8:00 AM56 °FOvercast.3 mph92%29.90 "Hg9 mi
7:00 AM56 °FOvercast.3 mph90%29.90 "Hg14 mi
6:00 AM56 °FOvercast.5 mph92%29.90 "Hg11 mi
5:00 AM54 °FOvercast.1 mph93%29.91 "Hg7 mi
4:00 AM54 °FOvercast.2 mph91%29.91 "Hg7 mi
3:00 AM57 °FOvercast.5 mph87%29.91 "Hg9 mi
2:00 AM56 °FOvercast.3 mph89%29.93 "Hg7 mi
1:00 AM58 °FOvercast.6 mph87%29.94 "Hg9 mi
12:00 AM58 °FOvercast.3 mph87%29.95 "Hg12 mi
11:00 PM
Fri, Sep 30
58 °FOvercast.3 mph88%29.97 "Hg12 mi
10:00 PM58 °FOvercast.1 mph84%29.98 "Hg12 mi
9:00 PM60 °FOvercast.3 mph82%29.98 "Hg12 mi
8:00 PM61 °FOvercast.No wind79%29.98 "Hg12 mi
7:00 PM66 °FOvercast.1 mph66%29.98 "Hg25 mi
6:00 PM68 °FScattered clouds.6 mph60%29.97 "Hg31 mi
5:00 PM73 °FPartly sunny.7 mph53%29.97 "Hg22 mi
4:00 PM73 °FOvercast.9 mph51%29.98 "Hg22 mi
3:00 PM73 °FOvercast.12 mph49%29.99 "Hg22 mi
2:00 PM73 °FOvercast.10 mph44%30.01 "Hg31 mi
Weather by CustomWeather, © 2016

See weather overviewHow to use our weather pages